Location: Aubervilles
(48.9167°N, 2.3833°E)
Time: 11:19:58
(UTC+00:00)

SJ-6B - Pass Details

Date: 03 February 2023
Orbit: 501 x 570 km, 97.5° (Epoch: 25 March)

Event Time Altitude Azimuth Distance (km) Brightness Sun altitude
Exits shadow 19:25:47 29° 344° (NNW) 1,025 4.3 -25.6°
Drops below altitude 10° 19:27:51 10° 346° (NNW) 1,851 5.7 -26.0°
Sets 19:30:01 0° 347° (NNW) 2,762 6.6 -26.3°
